This is the latest recevied weather packets stored in our database for station/object N8WEL. If no packets are shown the sender has not sent any weather packets the latest 10 day(s).
| Time | Temp. | Humidity | Pressure | Rain* | Wind** | Luminosity | Snow |
|---|---|---|---|---|---|---|---|
| 1777991581 | 17.22° C | 83% | 1007.3 hPa | 0 mm | - | - | - |
| 1777991580 | 16.67° C | 84% | 1007.2 hPa | 0 mm | - | - | - |
| 1777990853 | 16.67° C | 83% | 1007.1 hPa | 0 mm | - | - | - |
| 1777990356 | 16.11° C | 86% | 1006.9 hPa | 0 mm | - | - | - |
| 1777989584 | 15.56° C | 88% | 1006.8 hPa | 0 mm | - | - | - |
| 1777989130 | 15° C | 90% | 1006.9 hPa | 0 mm | - | - | - |
| 1777988931 | 15° C | 92% | 1006.9 hPa | 0 mm | - | - | - |
| 1777988516 | 14.44° C | 93% | 1006.9 hPa | 0 mm | - | - | - |
| 1777988127 | 14.44° C | 94% | 1006.8 hPa | 0 mm | - | - | - |
| 1777987528 | 13.89° C | 95% | 1006.7 hPa | 0 mm | - | - | - |
| 1777987188 | 13.89° C | 95% | 1006.9 hPa | 0 mm | - | - | - |
| 1777986918 | 13.89° C | 96% | 1006.8 hPa | 0.25 mm | - | - | - |
| 1777986861 | 13.89° C | 96% | 1006.9 hPa | 0.25 mm | - | - | - |
| 1777986467 | 13.33° C | 96% | 1006.9 hPa | 0.25 mm | - | - | - |
| 1777985495 | 13.33° C | 96% | 1006.8 hPa | 0.25 mm | - | - | - |
| 1777985242 | 13.33° C | 96% | 1006.9 hPa | 0.25 mm | - | - | - |
| 1777984891 | 13.33° C | 96% | 1006.9 hPa | 0.25 mm | - | - | - |
| 1777984608 | 13.33° C | 96% | 1006.8 hPa | 0.25 mm | - | - | - |
| 1777984290 | 13.33° C | 96% | 1006.8 hPa | 0.25 mm | - | - | - |
| 1777983990 | 13.33° C | 96% | 1006.8 hPa | 0.25 mm | - | - | - |
| 1777983721 | 13.33° C | 96% | 1006.8 hPa | 0.25 mm | - | - | - |
| 1777983393 | 13.33° C | 96% | 1006.7 hPa | 0 mm | - | - | - |
| 1777983142 | 13.33° C | 96% | 1006.9 hPa | 0 mm | - | - | - |
| 1777983141 | 12.78° C | 96% | 1006.8 hPa | 0 mm | - | - | - |
| 1777983140 | 12.78° C | 96% | 1006.4 hPa | 0 mm | - | - | - |
* Rain latest hour (hover to see other rain measurements)
** Current wind speed in m/s (hover to see current wind gust speed)